Home   Weather   Hilo   Past weeks

Flag for USA Past Weather in Hilo, Hawaii, USA — Yesterday and Last 2 Weeks

Now
73 °F

Rain. Fog.


Feels Like: 70 °F
Forecast: 71 / 83 °F
Wind: 9 mph from West

Location: Hilo International Airport

Current Time: Sep 30, 2016 at 9:06:48 PM

Latest Report: Sep 30, 2016 at 8:22 PM


Visibility: 4 mi

Pressure: 30.06 "Hg

Humidity: 94%

Dew Point: 72 °F

Location of HiloLocation

Past Weather in Hilo — Graph

°F

Hilo Temperature Yesterday

Maximum temperature yesterday: 83 °F (at 11:53 AM)
Minimum temperature yesterday: 72 °F (at 1:53 AM)
Average temperature yesterday: 76 °F

High & Low Weather Summary for the Past Weeks

 TemperatureHumidityPressure
High85 °F (Sep 16, 11:53 AM)100% (Sep 18, 2:29 AM)30.08 "Hg (Sep 18, 2:29 AM)
Low69 °F (Sep 19, 3:53 AM)57% (Sep 28, 11:53 AM)29.90 "Hg (Sep 28, 2:53 PM)
Average76 °F83%30.00 "Hg
* Reported Sep 15 7:53 PM — Sep 30 7:53 PM, Hilo, Weather by CustomWeather, © 2016

Note: Actual official high and low records may vary slightly from our data, if they occured in-between our weather recording intervals... More about our weather records

Advertising

Hilo Weather History for the Previous 24 Hours

Scroll right to see more
 ConditionsComfort  
Time TempWeatherWind HumidityBarometerVisibility
7:53 PM
Fri, Sep 30
75 °FPartly cloudy.5 mph88%30.05 "Hg10 mi
7:21 PM75 °FPassing clouds.7 mph89%30.05 "Hg10 mi
7:04 PM73 °FPassing clouds.8 mph94%30.05 "Hg10 mi
6:53 PM74 °FPassing clouds.8 mph91%30.04 "Hg10 mi
6:11 PM73 °FLight rain. Fog.3 mph94%30.03 "Hg4 mi
5:53 PM73 °FLight rain. Fog.7 mph94%30.03 "Hg2 mi
5:33 PM75 °FLight rain. Cloudy.9 mph83%30.02 "Hg2 mi
4:53 PM75 °FBroken clouds.7 mph85%30.01 "Hg10 mi
4:15 PM75 °FMostly cloudy.13 mph89%30.02 "Hg10 mi
4:00 PM75 °FLight rain. Fog.5 mph90%30.01 "Hg2 mi
2:53 PM79 °FCloudy.12 mph74%30.00 "Hg10 mi
1:53 PM84 °FMostly cloudy.10 mph59%30.00 "Hg10 mi
12:53 PM82 °FScattered clouds.9 mph63%30.03 "Hg10 mi
11:53 AM83 °FScattered clouds.10 mph63%30.05 "Hg10 mi
10:53 AM82 °FPassing clouds.7 mph63%30.07 "Hg10 mi
9:53 AM81 °FPassing clouds.5 mph67%30.08 "Hg10 mi
8:53 AM80 °FScattered clouds.6 mph69%30.08 "Hg10 mi
7:53 AM77 °FScattered clouds.6 mph77%30.06 "Hg10 mi
6:53 AM72 °FScattered clouds.7 mph87%30.05 "Hg10 mi
5:53 AM72 °FLight rain. Fog.6 mph91%30.03 "Hg4 mi
4:53 AM72 °FPartly cloudy.No wind91%30.01 "Hg10 mi
3:53 AM72 °FPassing clouds.3 mph87%30.00 "Hg10 mi
2:53 AM73 °FPassing clouds.No wind88%30.01 "Hg10 mi
1:53 AM72 °FPassing clouds.6 mph91%30.01 "Hg10 mi
12:53 AM73 °FPassing clouds.3 mph90%30.03 "Hg10 mi
11:53 PM
Thu, Sep 29
73 °FClear.5 mph88%30.05 "Hg10 mi
10:53 PM74 °FClear.No wind91%30.06 "Hg10 mi
9:53 PM74 °FLight rain. Passing clouds.5 mph91%30.07 "Hg10 mi
9:11 PM73 °FPartly cloudy.No wind94%30.07 "Hg10 mi
Weather by CustomWeather, © 2016

See weather overviewHow to use our weather pages